{"data":{"norad_id":67563,"epoch":"2026-09-19T09:46:44.210496Z","epoch_age_seconds":166681,"freshness":"FRESH","line1":"1 67563U 26016C   26262.40745614  .00011054  00000+0  34423-3 0  9990","line2":"2 67563  97.2865 321.0921 0000726  89.2857 270.8469 15.33443686 36556","mean_motion":15.33443686,"eccentricity":7.26e-5,"inclination_deg":97.2865,"raan_deg":321.0921,"arg_perigee_deg":89.2857,"mean_anomaly_deg":270.8469,"bstar":0.00034423,"rev_number":3655,"period_min":93.906285124578,"perigee_km":465.05023255595,"apogee_km":466.04393548494,"semimajor_km":6843.6840840204,"source":"CELESTRAK","updated_at":"2026-09-20T09:00:43.573822Z"}}